Radiation Dose at Monitoring Post of Fukushima Daini Nuclear Power Station
Date,Time,MP-1(microSv/h),MP-2(microSv/h),MP-3(microSv/h),MP-4(microSv/h),MP-5(microSv/h),MP-6(microSv/h),MP-7(microSv/h),Wind Direction,Wind Velocity(m/s),Rain
2018/08/09,00:00,0.306,0.188,0.310,0.299,0.281,0.148,0.093,northeast,11.4,Yes
2018/08/09,00:10,0.305,0.188,0.308,0.295,0.277,0.149,0.092,northeast,12.2,Yes
2018/08/09,00:20,0.302,0.190,0.311,0.296,0.279,0.150,0.092,east-northeast,10.9,Yes
2018/08/09,00:30,0.300,0.188,0.309,0.298,0.278,0.149,0.093,east-northeast,10.7,Yes
2018/08/09,00:40,0.305,0.189,0.308,0.296,0.277,0.147,0.093,northeast,11.5,No
2018/08/09,00:50,0.303,0.189,0.313,0.294,0.277,0.150,0.092,northeast,10.6,No
2018/08/09,01:00,0.300,0.190,0.309,0.297,0.281,0.148,0.093,northeast,10.9,No
2018/08/09,01:10,0.305,0.187,0.307,0.298,0.280,0.148,0.092,east-northeast,9.5,No
2018/08/09,01:20,0.304,0.189,0.311,0.295,0.277,0.149,0.093,northeast,8.9,No
2018/08/09,01:30,0.302,0.190,0.309,0.297,0.278,0.150,0.092,east-northeast,8.6,No
2018/08/09,01:40,0.302,0.189,0.307,0.298,0.280,0.149,0.092,east-northeast,7.5,No
2018/08/09,01:50,0.305,0.189,0.309,0.296,0.276,0.147,0.093,east-northeast,6.3,No
2018/08/09,02:00,0.303,0.189,0.311,0.295,0.276,0.150,0.092,northeast,8.8,No
2018/08/09,02:10,0.301,0.189,0.308,0.298,0.280,0.149,0.092,northeast,7.6,Yes
2018/08/09,02:20,0.304,0.188,0.308,0.297,0.280,0.148,0.092,northeast,10.4,No
2018/08/09,02:30,0.304,0.190,0.312,0.295,0.277,0.148,0.092,northeast,11.2,No
2018/08/09,02:40,0.301,0.189,0.310,0.297,0.279,0.149,0.093,northeast,12.9,Yes
2018/08/09,02:50,0.300,0.188,0.305,0.296,0.279,0.148,0.092,east-northeast,12.8,Yes
2018/08/09,03:00,0.298,0.186,0.302,0.282,0.270,0.145,0.093,east-northeast,8.3,Yes
2018/08/09,03:10,0.299,0.188,0.305,0.284,0.273,0.146,0.092,east-northeast,12.9,Yes
2018/08/09,03:20,0.298,0.187,0.305,0.293,0.280,0.148,0.094,east,10.6,Yes
2018/08/09,03:30,0.302,0.187,0.307,0.292,0.281,0.147,0.093,east,9.5,No
2018/08/09,03:40,0.300,0.189,0.309,0.291,0.277,0.147,0.093,east,10.1,No
2018/08/09,03:50,0.298,0.189,0.307,0.295,0.278,0.148,0.093,east,8.2,No
2018/08/09,04:00,0.300,0.188,0.306,0.296,0.281,0.148,0.093,east,7.7,No
2018/08/09,04:10,0.302,0.189,0.309,0.293,0.278,0.147,0.092,east,7.9,No
2018/08/09,04:20,0.301,0.188,0.309,0.294,0.275,0.146,0.092,east,9.2,No
2018/08/09,04:30,0.298,0.186,0.305,0.297,0.279,0.148,0.093,east,9.0,Yes
2018/08/09,04:40,0.303,0.188,0.310,0.294,0.281,0.149,0.092,east-northeast,8.8,Yes
2018/08/09,04:50,0.302,0.189,0.309,0.292,0.277,0.147,0.091,east-northeast,9.8,No
2018/08/09,05:00,0.299,0.188,0.305,0.297,0.276,0.147,0.093,east,10.3,No
2018/08/09,05:10,0.301,0.187,0.309,0.296,0.281,0.148,0.093,east,9.8,No
2018/08/09,05:20,0.304,0.189,0.309,0.294,0.279,0.148,0.092,east-northeast,10.9,Yes
2018/08/09,05:30,0.302,0.189,0.308,0.296,0.277,0.147,0.093,east,10.1,No
2018/08/09,05:40,0.300,0.187,0.309,0.297,0.278,0.147,0.092,east-northeast,10.6,No
2018/08/09,05:50,0.303,0.189,0.309,0.295,0.282,0.148,0.093,east-northeast,12.3,Yes
2018/08/09,06:00,0.303,0.190,0.309,0.295,0.279,0.148,0.092,east-northeast,12.9,Yes
2018/08/09,06:10,0.301,0.189,0.308,0.298,0.278,0.148,0.095,east-northeast,10.9,Yes
2018/08/09,06:20,0.302,0.191,0.311,0.297,0.282,0.150,0.095,east-northeast,12.5,Yes
2018/08/09,06:30,0.305,0.192,0.310,0.295,0.280,0.151,0.095,east-northeast,13.7,Yes
2018/08/09,06:40,0.303,0.190,0.309,0.299,0.277,0.150,0.096,east,12.3,Yes
2018/08/09,06:50,0.301,0.192,0.312,0.297,0.282,0.150,0.096,east-northeast,11.8,Yes
2018/08/09,07:00,0.305,0.192,0.310,0.293,0.282,0.151,0.095,east-northeast,10.4,Yes
2018/08/09,07:10,0.303,0.193,0.308,0.297,0.279,0.151,0.098,east-northeast,10.9,Yes
2018/08/09,07:20,0.301,0.194,0.311,0.296,0.284,0.152,0.098,east-northeast,13.1,Yes
2018/08/09,07:30,0.305,0.195,0.309,0.295,0.284,0.153,0.099,east-northeast,11.8,Yes
2018/08/09,07:40,0.304,0.195,0.309,0.299,0.280,0.153,0.101,east-northeast,12.3,Yes
2018/08/09,07:50,0.301,0.197,0.313,0.298,0.284,0.155,0.102,east-northeast,12.8,Yes
2018/08/09,08:00,0.305,0.197,0.311,0.296,0.285,0.156,0.102,east-northeast,13.1,Yes
2018/08/09,08:10,0.305,0.196,0.310,0.300,0.284,0.157,0.103,east,13.3,Yes
2018/08/09,08:20,0.302,0.199,0.315,0.299,0.287,0.157,0.106,east-northeast,13.1,Yes
2018/08/09,08:30,0.306,0.200,0.313,0.297,0.289,0.159,0.104,east-northeast,12.6,Yes
2018/08/09,08:40,0.306,0.196,0.313,0.301,0.284,0.156,0.104,east-northeast,13.4,Yes
2018/08/09,08:50,0.303,0.198,0.315,0.300,0.285,0.155,0.103,east-northeast,13.4,Yes
2018/08/09,09:00,0.305,0.196,0.312,0.297,0.288,0.157,0.100,east-northeast,13.7,Yes
2018/08/09,09:10,0.304,0.195,0.312,0.300,0.283,0.155,0.100,northeast,14.8,Yes
2018/08/09,09:20,0.300,0.195,0.314,0.299,0.283,0.153,0.099,east-northeast,13.9,Yes
2018/08/09,09:30,0.305,0.195,0.310,0.296,0.286,0.153,0.100,east-northeast,13.4,Yes
2018/08/09,09:40,0.303,0.196,0.311,0.298,0.284,0.154,0.100,east-northeast,12.2,Yes
2018/08/09,09:50,0.302,0.195,0.314,0.299,0.282,0.153,0.100,east-northeast,12.9,Yes
2018/08/09,10:00,0.304,0.195,0.311,0.297,0.287,0.152,0.099,east-northeast,14.0,Yes
2018/08/09,10:10,0.305,0.195,0.310,0.300,0.282,0.154,0.100,east-northeast,14.0,Yes
2018/08/09,10:20,0.303,0.195,0.313,0.301,0.282,0.152,0.100,east-northeast,16.7,Yes
2018/08/09,10:30,0.303,0.195,0.309,0.297,0.286,0.152,0.099,east,17.3,Yes
2018/08/09,10:40,0.304,0.193,0.309,0.298,0.282,0.153,0.098,east,14.6,Yes
2018/08/09,10:50,0.301,0.194,0.310,0.298,0.280,0.151,0.098,east,14.7,Yes
2018/08/09,11:00,0.302,0.192,0.308,0.296,0.283,0.150,0.097,east-northeast,12.8,Yes
2018/08/09,11:10,0.303,0.191,0.310,0.297,0.281,0.151,0.097,east-northeast,16.0,Yes
2018/08/09,11:20,0.303,0.193,0.311,0.297,0.279,0.150,0.098,east-northeast,15.6,Yes
2018/08/09,11:30,0.302,0.191,0.309,0.296,0.282,0.149,0.096,east-northeast,13.4,Yes
2018/08/09,11:40,0.306,0.193,0.310,0.297,0.282,0.151,0.097,east-northeast,15.8,Yes
2018/08/09,11:50,0.303,0.193,0.311,0.298,0.280,0.153,0.098,northeast,13.6,Yes
2018/08/09,12:00,0.301,0.193,0.310,0.297,0.284,0.152,0.097,east-northeast,13.9,Yes
2018/08/09,12:10,0.306,0.196,0.312,0.298,0.283,0.153,0.098,east-northeast,12.8,Yes
2018/08/09,12:20,0.303,0.195,0.312,0.298,0.281,0.153,0.100,east-northeast,12.8,Yes
2018/08/09,12:30,0.302,0.194,0.310,0.297,0.285,0.153,0.099,east-northeast,13.1,Yes
2018/08/09,12:40,0.305,0.196,0.312,0.298,0.284,0.152,0.098,east-northeast,12.0,Yes
2018/08/09,12:50,0.304,0.195,0.313,0.300,0.281,0.153,0.099,east-northeast,13.4,Yes
2018/08/09,13:00,0.303,0.194,0.309,0.296,0.284,0.153,0.098,northeast,14.0,Yes
2018/08/09,13:10,0.305,0.195,0.313,0.297,0.285,0.151,0.097,northeast,15.5,Yes
2018/08/09,13:20,0.302,0.192,0.311,0.298,0.279,0.152,0.097,northeast,14.8,Yes
2018/08/09,13:30,0.301,0.192,0.308,0.296,0.283,0.151,0.096,northeast,16.2,Yes
2018/08/09,13:40,0.304,0.193,0.312,0.298,0.282,0.151,0.096,northeast,14.4,Yes
2018/08/09,13:50,0.301,0.191,0.310,0.297,0.280,0.150,0.097,north-northeast,15.0,Yes
2018/08/09,14:00,0.300,0.191,0.307,0.296,0.281,0.149,0.095,north-northeast,15.4,Yes
2018/08/09,14:10,0.304,0.191,0.311,0.295,0.283,0.149,0.095,north-northeast,13.9,Yes
2018/08/09,14:20,0.301,0.190,0.310,0.297,0.279,0.149,0.095,north-northeast,12.9,No
2018/08/09,14:30,0.301,0.191,0.308,0.295,0.279,0.149,0.094,north-northeast,11.7,No
2018/08/09,14:40,0.306,0.191,0.310,0.295,0.280,0.148,0.093,north,12.0,Yes
2018/08/09,14:50,0.302,0.189,0.308,0.298,0.277,0.149,0.095,north,13.9,Yes
2018/08/09,15:00,0.300,0.191,0.306,0.295,0.279,0.148,0.094,north,15.4,Yes
2018/08/09,15:10,0.303,0.190,0.310,0.294,0.281,0.148,0.092,north-northwest,13.7,Yes
2018/08/09,15:20,0.303,0.190,0.309,0.297,0.277,0.150,0.094,north-northwest,13.4,Yes
2018/08/09,15:30,0.301,0.192,0.309,0.295,0.282,0.149,0.094,north,15.1,Yes
2018/08/09,15:40,0.306,0.192,0.311,0.296,0.281,0.151,0.095,north,15.4,Yes
2018/08/09,15:50,0.304,0.193,0.309,0.298,0.280,0.151,0.096,north-northwest,14.0,Yes
2018/08/09,16:00,0.303,0.195,0.309,0.296,0.283,0.152,0.097,north-northwest,14.3,Yes
2018/08/09,16:10,0.308,0.195,0.312,0.296,0.284,0.152,0.097,north-northwest,12.9,Yes
2018/08/09,16:20,0.307,0.196,0.308,0.299,0.281,0.154,0.100,-,-,Yes
2018/08/09,16:30,0.305,0.197,0.310,0.298,0.285,0.155,0.099,-,-,Yes
2018/08/09,16:40,0.310,0.195,0.313,0.295,0.285,0.154,0.099,-,-,Yes
2018/08/09,16:50,0.308,0.196,0.310,0.300,0.281,0.153,0.099,north-northwest,11.1,Yes
2018/08/09,17:00,0.306,0.196,0.311,0.298,0.285,0.153,0.098,northwest,11.4,Yes
2018/08/09,17:10,0.307,0.195,0.312,0.294,0.285,0.152,0.097,north-northwest,10.9,Yes
2018/08/09,17:20,0.306,0.194,0.309,0.299,0.281,0.151,0.097,north-northwest,10.9,Yes
2018/08/09,17:30,0.304,0.194,0.308,0.296,0.281,0.150,0.096,north-northwest,9.0,No
2018/08/09,17:40,0.306,0.192,0.311,0.294,0.283,0.151,0.095,north-northwest,10.0,No
2018/08/09,17:50,0.305,0.190,0.310,0.297,0.280,0.150,0.094,north-northwest,9.2,No
2018/08/09,18:00,0.303,0.193,0.307,0.298,0.278,0.149,0.095,northwest,8.6,No
2018/08/09,18:10,0.300,0.192,0.309,0.293,0.281,0.149,0.094,northwest,7.5,No
2018/08/09,18:20,0.304,0.190,0.310,0.294,0.280,0.150,0.093,northwest,7.3,No
2018/08/09,18:30,0.304,0.189,0.308,0.297,0.279,0.148,0.093,north-northwest,8.2,No
2018/08/09,18:40,0.301,0.190,0.308,0.296,0.278,0.147,0.093,north-northwest,8.1,No
2018/08/09,18:50,0.299,0.190,0.310,0.292,0.280,0.148,0.093,northwest,8.1,No
2018/08/09,19:00,0.303,0.189,0.308,0.297,0.279,0.148,0.092,northwest,7.8,No
2018/08/09,19:10,0.303,0.188,0.307,0.295,0.277,0.147,0.092,northwest,7.5,No
2018/08/09,19:20,0.301,0.190,0.309,0.294,0.278,0.147,0.092,north-northwest,7.2,No
2018/08/09,19:30,0.299,0.190,0.310,0.296,0.282,0.148,0.092,northwest,8.1,No
2018/08/09,19:40,0.303,0.188,0.308,0.296,0.279,0.148,0.092,northwest,6.6,No
2018/08/09,19:50,0.302,0.189,0.305,0.294,0.278,0.148,0.093,north-northwest,6.0,No
2018/08/09,20:00,0.302,0.190,0.310,0.296,0.279,0.149,0.091,northwest,4.8,No
2018/08/09,20:10,0.298,0.189,0.311,0.297,0.281,0.148,0.093,north-northwest,4.0,No
2018/08/09,20:20,0.304,0.188,0.308,0.294,0.278,0.148,0.093,northwest,3.2,No
2018/08/09,20:30,0.304,0.190,0.308,0.294,0.277,0.148,0.092,west-northwest,1.5,No
2018/08/09,20:40,0.301,0.190,0.311,0.298,0.278,0.148,0.091,west,1.1,No
2018/08/09,20:50,0.299,0.188,0.310,0.297,0.281,0.149,0.092,north-northwest,1.5,No
2018/08/09,21:00,0.305,0.188,0.305,0.295,0.279,0.147,0.093,west-northwest,1.5,No
2018/08/09,21:10,0.303,0.192,0.311,0.295,0.277,0.149,0.091,west-southwest,2.1,No
2018/08/09,21:20,0.300,0.190,0.311,0.298,0.280,0.148,0.092,west-southwest,4.2,No
2018/08/09,21:30,0.302,0.189,0.309,0.296,0.282,0.149,0.093,west-southwest,4.8,No
2018/08/09,21:40,0.305,0.190,0.307,0.294,0.279,0.148,0.092,west,4.0,No
2018/08/09,21:50,0.303,0.191,0.312,0.298,0.276,0.149,0.093,southwest,2.7,No
2018/08/09,22:00,0.301,0.190,0.311,0.297,0.280,0.148,0.093,west-southwest,2.3,No
2018/08/09,22:10,0.304,0.188,0.307,0.294,0.280,0.148,0.092,west-northwest,2.6,No
2018/08/09,22:20,0.305,0.190,0.310,0.296,0.278,0.150,0.093,northwest,4.1,No
2018/08/09,22:30,0.303,0.190,0.311,0.298,0.278,0.149,0.093,northwest,4.2,No
2018/08/09,22:40,0.300,0.189,0.309,0.296,0.280,0.149,0.092,north-northwest,3.9,No
2018/08/09,22:50,0.305,0.190,0.309,0.294,0.281,0.149,0.093,north,4.6,No
2018/08/09,23:00,0.304,0.190,0.313,0.296,0.280,0.149,0.093,north-northwest,4.9,No
2018/08/09,23:10,0.302,0.189,0.309,0.300,0.277,0.148,0.093,north-northwest,3.7,No
2018/08/09,23:20,0.303,0.189,0.307,0.296,0.279,0.148,0.093,-,CALM,No
2018/08/09,23:30,0.305,0.191,0.311,0.295,0.282,0.150,0.092,east-southeast,1.9,No
2018/08/09,23:40,0.303,0.191,0.311,0.298,0.280,0.148,0.093,east-southeast,1.8,No
2018/08/09,23:50,0.300,0.190,0.309,0.297,0.276,0.149,0.093,southeast,1.7,No
